DMSP 5D-2 F13 DEB

Satellite information

Favourite Embed

Satellite Type and Status

DEBRISIN ORBIT

Key statistics

Satellite DMSP 5D-2 F13 DEB at a glance.

Uptime

11172

Days in orbit

Revolutions

≈ 14.5

Per day

Orbit

SSO

Sun Synchronous Orbit

Inclination

98.7

Latest

Satellite identification and parameters

Extended collection of information and parameters for DMSP 5D-2 F13 DEB.

Object identification

Identified? True

Debris? True

Object name: DMSP 5D-2 F13 DEB

International designator: 1995-015EL

Object number (NORAD): 40577

Object ID (CCSDS): 40577

Country: UNITED STATES OF AMERICA (US)

Current information (Y/N): Y

RCS size: SMALL

Orbital parameters

Period: 99.466 minutes

Inclination: 98.6655 deg

SMA: 7111.184 km

Apoapsis: 743.442 km

Periapsis: 722.656 km

RAAN: 335.1052 deg

Eccentricy: 0.00146151

Argument of periapsis: 162.342 deg

Mean anomaly: 197.8283 deg

Mean motion: 14.47737781 rev/day

Mean motion (dot): 0.0000882 rev/day2

B* drag term: 0.0023947675 1/REarth

Two-line elements (TLE)

Creation date: Oct. 23, 2025, 2:46 a.m.

Reference frame: TEME

Reference center: EARTH

Epoch: Oct. 22, 2025, 1:28 p.m. UTC

TLE line 0: 0 DMSP 5D-2 F13 DEB

TLE line 1: 1 40577U 95015EL 25295.56139886 .00008820 00000-0 23948-2 0 9998

TLE line 2: 2 40577 98.6655 335.1052 0014615 162.3420 197.8283 14.47737781549148

Live tracking on map

Real-time ground track for satellite DMSP 5D-2 F13 DEB.

In-orbit conjunctions

A list of the most updated potential collisions computed for object DMSP 5D-2 F13 DEB.

Target Orbit TCA Probability of collision Miss distance Type
CZ-6A DEB LEO 2025-03-20 04:33:23 0.0001332693 54.0 (m) DEBRIS
IRIDIUM 33 DEB LEO 2024-12-11 17:27:12 0.0001194106 77.0 (m) DEBRIS
COSMOS 1331 DEB LEO 2024-10-13 07:02:25 0.000141944 143.0 (m) DEBRIS
METEOR 2-7 DEB LEO 2024-07-15 03:16:00 0.000101388 115.0 (m) DEBRIS

Associated space launch

Military meteorological satellite

DMSP 5D-2 F13 DEB was lifted into orbit during the mission ‘Atlas E | DMSP-5D2 F13’, on board a Atlas E space rocket.

The launch took place on March 24, 1995, 2:05 p.m. from Space Launch Complex 3W.

For more information about the launch, click the button.

Launch to space Atlas E | DMSP-5D2 F13
Atlas E | DMSP-5D2 F13

Agency: N/A

Status: Launch Successful

Launch date: March 24, 1995, 2:05 p.m. UTC

Rocket: Atlas E

Launch pad: Space Launch Complex 3W

Location: Vandenberg SFB, CA, USA

...

Latest news about this satellite

There are no fresh news available about this satellite. Check back as we update our databases every day.


Newsletter sign-up

Weekly statistics, charts and insights to help you stay on top of the space industry.